When you browse on this site, cookies collect data to enhance your experience and personalize the content and advertising you see.
Visit our Privacy Policy to learn more. By continuing to use the site, you agree to this use of cookies and data.
  • In Hungary
  • List of Countries
  • For 7 days
  • Water Temperature
  • Satellite Maps
  • Weather Map
  • News
  • Weather Widgets
  • user-avatar
    Login

    Hourly Weather Arkadia

    Today, 19 January, Saturday

    Time Temperature Precipitation Wind Pressure Humidity
    00:00 0°C° 0 mm 1 mps 663 mmHg 86%
    01:00 0°C° 0 mm 1 mps 663 mmHg 85%
    02:00 0°C° 0 mm 1 mps 663 mmHg 84%
    03:00 0°C° 0 mm 1 mps 663 mmHg 83%
    04:00 0°C° 0 mm 1 mps 663 mmHg 83%
    05:00 +1°C° 0 mm 1 mps 663 mmHg 81%
    06:00 +1°C° 0 mm 1 mps 663 mmHg 79%
    07:00 +1°C° 0 mm 1 mps 663 mmHg 78%
    08:00 +3°C° 0.1 mm 1 mps 664 mmHg 77%
    09:00 +4°C° 0.1 mm 1 mps 664 mmHg 77%
    10:00 +6°C° 0.1 mm 1 mps 665 mmHg 77%
    11:00 +6°C° 0.3 mm 1 mps 665 mmHg 77%
    12:00 +7°C° 0.3 mm 1 mps 665 mmHg 77%
    13:00 +8°C° 0.3 mm 1 mps 665 mmHg 77%
    14:00 +7°C° 0.2 mm 1 mps 664 mmHg 81%
    15:00 +6°C° 0.2 mm 1 mps 664 mmHg 85%
    16:00 +6°C° 0.2 mm 1 mps 663 mmHg 89%
    17:00 +5°C° 0 mm 1 mps 663 mmHg 91%
    18:00 +4°C° 0 mm 1 mps 663 mmHg 93%
    19:00 +3°C° 0 mm 1 mps 663 mmHg 94%
    20:00 +2°C° 0 mm 1 mps 663 mmHg 94%
    21:00 +2°C° 0 mm 1 mps 663 mmHg 94%
    22:00 +2°C° 0 mm 1 mps 663 mmHg 94%
    23:00 +2°C° 0 mm 1 mps 663 mmHg 94%

    Tomorrow, 20 January, Sunday

    Time Temperature Precipitation Wind Pressure Humidity
    00:00 +2°C° 0 mm 1 mps 662 mmHg 94%
    01:00 +2°C° 0 mm 1 mps 662 mmHg 94%
    02:00 +2°C° 0 mm 1 mps 662 mmHg 94%
    03:00 +2°C° 0 mm 1 mps 662 mmHg 94%
    04:00 +2°C° 0 mm 1 mps 662 mmHg 94%
    05:00 +2°C° 0 mm 1 mps 662 mmHg 94%
    06:00 +2°C° 0 mm 1 mps 662 mmHg 93%
    07:00 +2°C° 0 mm 1 mps 662 mmHg 93%
    08:00 +3°C° 0 mm 1 mps 662 mmHg 88%
    09:00 +5°C° 0 mm 1 mps 663 mmHg 83%
    10:00 +7°C° 0 mm 1 mps 664 mmHg 77%
    11:00 +7°C° 0.1 mm 1 mps 664 mmHg 74%
    12:00 +7°C° 0.1 mm 2 mps 663 mmHg 71%
    13:00 +8°C° 0.1 mm 2 mps 663 mmHg 67%
    14:00 +8°C° 0.2 mm 1 mps 663 mmHg 72%
    15:00 +7°C° 0.2 mm 1 mps 662 mmHg 77%
    16:00 +6°C° 0.2 mm 1 mps 662 mmHg 82%
    17:00 +4°C° 0 mm 0 mps 662 mmHg 85%
    18:00 +3°C° 0 mm 0 mps 661 mmHg 88%
    19:00 +2°C° 0 mm 0 mps 661 mmHg 90%
    20:00 +2°C° 0 mm 0 mps 661 mmHg 90%
    21:00 +1°C° 0 mm 0 mps 661 mmHg 89%
    22:00 +1°C° 0 mm 0 mps 661 mmHg 89%
    23:00 +1°C° 0 mm 0 mps 661 mmHg 87%

    Day after tomorrow, 21 January, Monday

    Time Temperature Precipitation Wind Pressure Humidity
    00:00 +1°C° 0 mm 0 mps 661 mmHg 85%
    01:00 0°C° 0 mm 0 mps 661 mmHg 84%
    02:00 0°C° 0 mm 0 mps 661 mmHg 83%
    03:00 +1°C° 0 mm 1 mps 661 mmHg 81%
    04:00 +1°C° 0 mm 1 mps 661 mmHg 80%
    05:00 +1°C° 0 mm 1 mps 661 mmHg 79%
    06:00 +1°C° 0 mm 1 mps 661 mmHg 79%
    07:00 0°C° 0 mm 1 mps 661 mmHg 78%
    08:00 +2°C° 0 mm 0 mps 662 mmHg 72%
    09:00 +4°C° 0 mm 0 mps 663 mmHg 67%
    10:00 +7°C° 0 mm 0 mps 664 mmHg 61%
    11:00 +7°C° 0 mm 0 mps 664 mmHg 58%
    12:00 +9°C° 0 mm 1 mps 664 mmHg 56%
    13:00 +9°C° 0 mm 1 mps 664 mmHg 53%
    14:00 +8°C° 0 mm 1 mps 664 mmHg 60%
    15:00 +8°C° 0 mm 1 mps 663 mmHg 66%
    16:00 +6°C° 0 mm 0 mps 663 mmHg 72%
    17:00 +5°C° 0 mm 0 mps 663 mmHg 77%
    18:00 +3°C° 0 mm 0 mps 663 mmHg 81%
    19:00 +2°C° 0 mm 0 mps 663 mmHg 86%
    20:00 +2°C° 0 mm 0 mps 663 mmHg 87%
    21:00 +1°C° 0 mm 0 mps 663 mmHg 89%
    22:00 +1°C° 0 mm 0 mps 663 mmHg 91%
    23:00 +1°C° 0 mm 0 mps 662 mmHg 91%

    22 January, Tuesday

    Time Temperature Precipitation Wind Pressure Humidity
    00:00 +1°C° 0 mm 0 mps 662 mmHg 91%
    01:00 +1°C° 0 mm 0 mps 662 mmHg 91%
    02:00 +1°C° 0 mm 0 mps 662 mmHg 89%
    03:00 +1°C° 0 mm 0 mps 661 mmHg 88%
    04:00 +2°C° 0 mm 1 mps 661 mmHg 86%
    05:00 +2°C° 0.1 mm 1 mps 661 mmHg 86%
    06:00 +2°C° 0.1 mm 1 mps 661 mmHg 86%
    07:00 +3°C° 0.1 mm 1 mps 661 mmHg 86%
    08:00 +4°C° 0 mm 1 mps 662 mmHg 82%
    09:00 +5°C° 0 mm 1 mps 662 mmHg 79%
    10:00 +5°C° 0 mm 2 mps 662 mmHg 75%
    11:00 +6°C° 0.2 mm 2 mps 662 mmHg 77%
    12:00 +5°C° 0.2 mm 3 mps 661 mmHg 79%
    13:00 +5°C° 0.2 mm 3 mps 661 mmHg 81%
    14:00 +5°C° 0.2 mm 3 mps 660 mmHg 83%
    15:00 +5°C° 0.2 mm 2 mps 659 mmHg 84%
    16:00 +5°C° 0.2 mm 2 mps 659 mmHg 86%
    17:00 +4°C° 0 mm 2 mps 658 mmHg 89%
    18:00 +3°C° 0 mm 2 mps 658 mmHg 92%
    19:00 +3°C° 0 mm 1 mps 657 mmHg 94%
    20:00 +2°C° 0.4 mm 2 mps 657 mmHg 95%
    21:00 +3°C° 0.4 mm 2 mps 657 mmHg 95%
    22:00 +3°C° 0.4 mm 2 mps 657 mmHg 96%
    23:00 +2°C° 0.2 mm 3 mps 657 mmHg 95%

    23 January, Wednesday

    Time Temperature Precipitation Wind Pressure Humidity
    00:00 +2°C° 0.2 mm 3 mps 657 mmHg 95%
    01:00 +2°C° 0.2 mm 3 mps 657 mmHg 95%
    02:00 +1°C° 0.3 mm 3 mps 656 mmHg 95%
    03:00 +1°C° 0.3 mm 3 mps 656 mmHg 95%
    04:00 +1°C° 0.3 mm 3 mps 656 mmHg 94%
    05:00 +1°C° 0.2 mm 3 mps 656 mmHg 94%
    06:00 +1°C° 0.2 mm 3 mps 656 mmHg 95%
    07:00 +1°C° 0.2 mm 2 mps 656 mmHg 95%
    08:00 +1°C° 0.6 mm 3 mps 656 mmHg 92%
    09:00 +2°C° 0.6 mm 3 mps 657 mmHg 89%
    10:00 +1°C° 0.6 mm 4 mps 657 mmHg 86%
    11:00 +1°C° 0.3 mm 4 mps 657 mmHg 86%
    12:00 +3°C° 0.3 mm 4 mps 656 mmHg 85%
    13:00 +3°C° 0.3 mm 4 mps 656 mmHg 85%
    14:00 +2°C° 0.1 mm 3 mps 656 mmHg 85%
    15:00 +2°C° 0.1 mm 3 mps 655 mmHg 86%
    16:00 +3°C° 0.1 mm 2 mps 655 mmHg 87%
    17:00 +2°C° 0 mm 2 mps 655 mmHg 90%
    18:00 +2°C° 0 mm 1 mps 655 mmHg 93%
    19:00 +2°C° 0 mm 1 mps 654 mmHg 96%
    20:00 +1°C° 0 mm 1 mps 654 mmHg 96%
    21:00 +1°C° 0 mm 1 mps 654 mmHg 96%
    22:00 +1°C° 0 mm 1 mps 654 mmHg 97%
    23:00 +1°C° 0.2 mm 1 mps 653 mmHg 95%

    24 January, Thursday

    Time Temperature Precipitation Wind Pressure Humidity
    00:00 +1°C° 0.2 mm 1 mps 653 mmHg 93%
    01:00 +2°C° 0.2 mm 1 mps 652 mmHg 92%
    02:00 +2°C° 3.1 mm 1 mps 652 mmHg 93%
    03:00 +2°C° 3.1 mm 1 mps 651 mmHg 94%
    04:00 +2°C° 3.1 mm 1 mps 650 mmHg 96%
    05:00 +2°C° 2 mm 1 mps 650 mmHg 96%
    06:00 +2°C° 2 mm 1 mps 651 mmHg 97%
    07:00 +3°C° 2 mm 1 mps 651 mmHg 97%
    08:00 +3°C° 0.3 mm 2 mps 651 mmHg 93%
    09:00 +2°C° 0.3 mm 3 mps 651 mmHg 90%
    10:00 +3°C° 0.3 mm 3 mps 652 mmHg 86%
    11:00 +4°C° 0.2 mm 3 mps 651 mmHg 85%
    12:00 +4°C° 0.2 mm 4 mps 651 mmHg 84%
    13:00 +5°C° 0.2 mm 4 mps 651 mmHg 83%
    14:00 +4°C° 0.9 mm 4 mps 651 mmHg 86%
    15:00 +3°C° 0.9 mm 3 mps 650 mmHg 90%
    16:00 +3°C° 0.9 mm 3 mps 650 mmHg 94%
    17:00 +3°C° 1.5 mm 3 mps 650 mmHg 95%
    18:00 +3°C° 1.5 mm 3 mps 651 mmHg 95%
    19:00 +2°C° 1.5 mm 3 mps 651 mmHg 96%
    20:00 +3°C° 1.6 mm 3 mps 651 mmHg 96%
    21:00 +3°C° 1.6 mm 3 mps 651 mmHg 96%
    22:00 +3°C° 1.6 mm 4 mps 651 mmHg 96%
    23:00 +3°C° 1.1 mm 4 mps 651 mmHg 96%
    Show more